Theta_e
297 297 297 296 297 298 298 299 297 301 304 312 322 324 326 332 333 333 334 336 338 340 346 349 346 350 350 350 350 347 351 352 354 356 356 357 357 357 356 356 355 358 361 366
295 296 298 296 298 299 306 309 309 310 308 323 324 325 323 323 325 326 328 330 332 336 341 341 345 348 350 351 351 352 351 351 354 355 356 357 358 358 358 358 358 360 363 365
292 296 297 293 300 307 309 310 309 306 315 321 318 318 319 320 323 324 326 328 330 332 335 340 344 344 345 351 353 353 353 354 354 355 355 356 358 359 359 359 361 360 363 366
292 295 286 303 312 312 311 312 313 314 317 320 319 320 321 323 322 323 324 325 328 331 335 338 341 345 347 345 352 353 353 354 356 356 355 357 359 359 361 362 363 362 364 367
290 290 293 298 305 306 305 307 315 314 317 320 321 323 319 322 324 323 324 325 326 330 333 335 336 338 346 349 349 352 353 355 357 357 357 358 358 361 363 363 364 364 365 367
291 287 285 298 307 311 310 302 312 316 319 319 321 316 316 320 323 324 324 324 325 329 331 334 336 337 337 348 349 349 352 355 359 360 359 359 361 363 364 364 363 363 365 367
290 289 293 304 308 312 299 303 311 314 319 319 318 321 319 320 322 325 326 325 327 328 329 330 331 334 336 337 337 340 346 352 358 360 361 363 364 364 364 363 364 364 365 367
290 288 286 306 308 303 304 310 312 312 318 318 317 317 316 317 318 320 322 325 328 326 325 328 329 331 334 333 337 342 345 349 354 359 359 359 363 363 363 363 362 363 363 355
292 294 304 305 302 303 304 308 310 312 315 319 317 316 317 316 319 319 320 323 327 328 327 326 327 331 333 334 334 337 348 351 351 357 358 360 361 361 359 362 359 359 356 351
296 301 303 302 302 302 302 308 311 315 318 321 319 318 317 318 317 317 319 321 324 325 327 325 324 326 328 331 334 336 338 344 346 342 341 356 359 360 359 358 358 357 354 351
295 301 302 303 304 301 302 308 311 314 319 319 319 317 317 315 316 316 316 319 321 321 323 324 326 326 325 327 330 339 342 343 339 340 342 338 347 339 358 364 354 358 358 356
293 297 296 302 301 302 303 307 309 312 316 320 318 314 312 310 311 313 313 313 315 318 320 321 325 324 321 322 325 331 337 338 335 337 338 335 333 335 313 312 308 309 316 341
298 299 301 301 302 304 307 307 310 313 316 316 316 315 312 311 312 310 312 313 311 313 314 318 323 325 324 323 324 328 332 336 337 338 336 332 329 336 332 319 307 304 302 304
302 301 299 301 303 305 306 308 312 315 316 317 316 315 314 312 311 309 309 310 312 314 313 314 320 321 325 327 325 328 331 321 333 339 342 336 335 347 340 341 333 326 312 314
301 302 301 302 303 306 307 309 310 312 313 313 313 312 311 309 308 308 310 312 314 314 313 316 317 319 324 326 325 327 328 329 334 339 339 334 341 342 343 336 335 329 320 310
299 299 301 300 302 305 305 308 308 309 312 312 311 309 308 307 307 309 310 312 312 310 313 315 316 319 321 324 323 326 327 322 323 334 336 338 339 340 340 339 338 337 334 326
296 297 300 301 303 304 305 307 310 312 311 310 309 308 307 306 308 309 310 311 313 314 314 314 315 320 321 321 320 321 324 325 321 327 328 330 329 328 331 335 336 333 331 320
301 302 303 302 302 304 305 307 311 312 311 310 306 306 306 305 306 308 309 311 313 315 313 314 316 318 321 320 318 318 318 318 321 322 322 319 321 321 321 321 319 320 323 323
301 301 301 302 303 303 306 308 310 310 310 307 303 302 303 304 306 308 310 310 310 311 311 315 315 317 319 317 317 315 314 313 313 315 316 313 313 312 313 314 313 314 313 314
301 302 302 302 305 305 306 307 308 308 305 303 302 301 301 302 305 308 309 307 307 308 314 315 315 315 316 317 317 314 311 310 309 309 308 307 307 307 307 304 308 308 309 308
300 300 300 301 302 303 304 305 303 302 304 303 300 301 301 301 302 307 309 306 308 309 312 312 312 313 314 315 316 314 310 308 305 304 303 302 302 301 302 302 302 303 302 303
302 300 300 301 301 301 303 303 303 303 302 302 301 301 302 303 304 302 304 305 308 304 309 309 310 309 312 312 314 313 309 307 304 302 301 300 300 299 298 298 298 299 299 300
301 303 302 301 300 301 302 303 303 303 303 304 303 303 302 301 301 299 301 305 309 306 308 307 306 307 309 310 309 309 309 307 303 301 300 299 298 298 297 297 296 296 295 295
304 304 302 302 302 301 300 302 304 305 305 306 305 305 304 301 302 304 305 303 302 304 306 306 305 305 305 306 304 303 303 304 304 302 300 298 299 297 296 296 296 296 295 294
304 304 305 304 304 301 302 304 304 304 304 304 305 305 306 305 304 304 305 305 302 304 305 302 303 304 307 306 305 305 304 303 301 301 301 299 298 297 297 297 297 296 295 295
301 301 303 305 305 305 305 304 304 304 305 304 304 305 306 305 304 305 305 303 305 304 306 307 307 307 307 306 306 305 305 305 304 303 301 300 298 297 297 298 296 297 297 299
301 298 302 302 303 304 307 307 306 304 304 304 303 304 305 305 304 304 301 304 304 304 305 305 305 304 306 306 306 306 306 305 300 305 305 304 303 303 301 299 297 298 300 300
Wind_Speed
1 2 3 5 7 6 5 2 5 4 6 8 6 7 9 10 10 12 13 13 12 10 7 3 6 9 12 13 12 10 15 16 17 15 14 13 13 12 11 11 10 10 10 8
2 2 4 7 9 8 3 2 5 6 5 7 7 7 10 10 10 11 12 11 10 10 9 8 7 4 9 11 13 13 15 16 14 14 13 13 12 11 10 10 10 10 10 9
3 4 6 8 4 4 2 2 1 4 4 10 5 8 9 9 10 9 11 10 10 9 8 7 6 4 4 9 10 12 13 13 13 13 13 13 12 11 11 11 10 11 11 10
3 4 9 5 5 5 3 3 1 5 3 6 8 6 7 8 8 8 9 10 9 8 7 7 7 6 5 5 13 12 12 13 12 13 13 12 12 12 11 10 11 10 11 11
5 8 4 6 0 1 1 3 5 8 4 2 8 1 7 8 7 7 7 7 7 7 7 7 10 10 8 7 8 11 13 13 13 13 12 12 14 13 11 10 9 10 9 11
4 7 7 4 4 2 2 5 7 8 7 4 2 3 2 7 6 6 6 7 8 9 7 6 11 11 9 1 8 9 10 10 10 11 12 13 13 12 10 10 10 8 9 10
9 7 3 6 8 2 7 4 10 10 8 3 7 4 4 6 6 5 5 6 7 8 8 10 11 10 8 8 8 5 4 5 6 9 10 11 10 9 9 9 8 10 10 9
6 9 13 10 2 4 5 7 8 9 5 10 10 5 4 5 7 8 8 8 8 7 8 9 9 7 9 8 6 3 6 5 4 6 8 8 10 9 10 10 10 10 11 8
5 3 5 6 5 7 8 7 6 7 11 7 7 4 3 4 7 8 8 7 7 7 9 10 10 8 3 6 8 8 5 7 10 4 6 8 8 10 9 11 10 11 10 8
4 3 4 2 3 7 11 11 8 8 3 4 9 6 4 5 5 6 7 7 7 9 10 10 9 8 5 6 9 6 7 6 8 9 12 8 9 8 9 10 10 10 10 9
7 9 4 6 4 10 13 12 8 9 3 5 6 10 8 5 6 5 7 8 7 10 11 9 9 9 8 7 8 5 7 7 8 1 8 11 13 6 10 10 10 11 11 11
4 2 1 5 7 11 11 12 11 9 5 8 7 7 10 6 5 3 5 6 10 11 10 12 12 12 11 12 10 8 4 11 7 2 3 8 11 5 7 11 4 8 2 8
3 3 6 9 10 10 9 9 11 10 6 9 9 8 8 5 7 6 9 11 11 9 11 11 13 12 13 15 16 17 14 10 6 8 8 8 13 11 7 5 15 17 12 11
6 5 8 8 3 5 7 9 9 7 3 6 8 6 4 5 4 8 9 8 8 9 10 12 12 14 12 11 10 10 8 9 5 3 2 0 23 16 7 4 5 4 9 9
7 8 12 8 7 5 4 5 8 7 2 6 6 3 3 6 8 7 6 6 6 9 11 11 12 13 14 12 9 7 5 6 6 3 2 3 3 4 4 5 5 5 6 10
7 7 8 8 8 1 2 4 1 5 7 3 4 4 5 5 6 6 6 6 8 8 8 7 8 9 10 11 10 6 5 9 7 5 4 4 5 5 4 4 4 5 8 7
5 4 8 8 5 3 2 3 5 2 2 3 3 4 5 5 6 8 8 9 10 11 13 12 11 10 10 11 10 7 5 5 8 6 7 6 7 6 6 6 5 5 5 2
1 1 1 2 1 1 1 4 5 2 3 4 5 5 6 6 6 6 7 9 9 10 12 13 13 11 11 10 9 7 6 6 6 6 6 7 6 6 6 6 7 7 5 5
6 4 3 1 3 3 4 4 2 3 3 6 5 6 6 6 5 6 6 8 9 10 12 12 13 12 11 13 8 6 6 7 7 7 7 8 8 9 8 7 7 6 6 5
8 7 6 2 2 1 2 3 4 5 5 7 7 7 7 7 6 6 6 8 7 6 9 11 11 10 10 11 11 8 8 8 9 9 9 9 8 8 8 9 8 8 7 7
9 8 9 8 7 6 5 5 7 8 8 9 8 7 7 7 8 4 6 6 8 9 8 10 11 9 9 9 10 10 9 8 9 9 9 9 9 9 10 8 8 9 8 8
8 9 7 9 9 10 9 9 10 8 8 6 5 3 5 9 9 9 7 6 5 10 8 9 9 13 10 10 9 11 11 11 9 8 9 9 8 8 8 9 10 10 9 9
4 7 9 10 8 9 9 9 10 10 10 9 7 6 6 5 6 6 6 8 5 7 9 9 11 11 10 9 9 11 11 11 9 8 8 8 8 9 9 10 11 9 10 9
5 5 8 7 7 7 8 7 8 8 8 8 10 7 4 5 6 5 5 6 7 8 9 8 10 10 10 10 10 11 11 10 10 10 8 10 8 8 9 9 9 8 8 9
5 6 8 8 8 6 7 7 5 5 6 7 8 7 8 6 5 4 5 6 7 5 5 9 8 7 9 9 10 11 10 10 10 10 10 7 7 8 7 7 8 7 7 9
4 5 6 8 5 5 6 6 5 5 5 4 4 4 4 4 4 3 4 5 6 6 6 5 6 6 8 8 9 9 9 9 9 10 10 10 9 7 8 8 7 9 7 9
5 3 6 6 4 6 6 7 6 5 6 6 5 4 4 3 3 3 2 5 5 5 6 6 7 6 5 5 6 6 7 7 8 7 8 8 7 8 8 7 7 7 7 8
Wind_Direction
308 311 314 293 295 308 305 302 268 19 307 349 18 41 40 46 48 46 47 46 44 47 48 56 218 215 211 214 205 197 197 200 205 207 209 212 218 211 212 213 214 219 224 215
274 329 295 277 280 281 238 216 272 303 279 42 34 46 49 35 36 39 39 34 23 23 28 26 23 338 229 214 202 199 203 211 208 200 204 208 217 210 206 212 210 205 218 216
255 334 300 246 267 267 190 124 292 277 16 323 54 43 36 35 34 30 22 16 15 10 6 1 359 347 297 221 201 211 212 214 208 199 200 205 209 208 203 210 206 204 209 212
275 290 245 88 57 53 216 110 58 268 302 107 99 76 46 35 34 25 13 4 358 352 344 347 344 341 279 259 214 201 217 214 200 199 203 204 206 210 205 209 207 203 203 205
244 229 306 211 107 13 325 201 332 302 258 154 165 277 57 15 31 28 6 357 343 341 331 314 347 341 318 245 234 197 216 217 203 193 199 201 206 207 205 205 207 207 204 197
177 237 234 79 89 21 205 232 12 325 290 211 190 227 31 347 5 27 18 3 352 356 1 344 351 343 357 339 201 207 215 227 220 204 194 205 211 202 202 205 204 206 205 195
215 240 247 14 327 222 202 62 331 324 298 239 139 55 32 351 1 27 39 17 22 21 13 0 351 339 13 29 28 25 355 310 224 225 217 209 212 206 203 202 206 201 200 184
217 233 237 3 224 268 2 321 335 325 340 97 96 102 59 30 13 8 18 19 27 45 25 6 355 345 35 20 349 11 72 333 256 224 236 209 210 205 202 191 195 196 195 174
254 18 36 24 38 353 329 310 315 322 316 115 116 92 49 8 15 15 358 2 24 38 53 30 7 10 245 343 334 310 68 49 34 326 268 256 220 210 201 201 195 193 190 175
297 172 220 61 34 3 342 318 339 319 249 132 124 106 45 10 0 355 353 351 356 26 42 44 23 23 353 309 298 246 234 66 43 57 11 332 285 242 221 207 208 195 184 184
258 254 304 213 1 357 334 320 354 339 256 115 105 100 88 28 14 346 351 344 9 22 5 14 42 28 359 337 318 259 83 87 28 46 46 349 316 326 258 215 208 199 188 182
227 135 209 286 326 340 326 319 344 324 270 90 77 77 83 46 3 18 19 2 21 19 2 358 1 16 3 352 354 353 25 46 23 196 47 334 340 291 349 335 65 40 264 201
217 156 254 282 298 303 307 316 319 301 255 121 89 69 55 46 13 21 25 18 29 6 349 2 358 18 15 5 2 0 8 352 359 347 59 347 304 303 242 52 70 53 46 58
249 276 267 212 205 323 304 319 317 338 352 74 78 75 91 75 35 21 32 26 3 6 9 7 4 355 6 29 12 8 350 311 312 287 200 222 254 216 191 166 118 107 44 17
252 250 258 272 286 284 296 328 2 344 142 108 82 41 0 55 53 23 12 19 36 17 12 11 17 352 352 7 18 18 351 337 301 281 189 241 307 14 67 109 123 105 109 88
289 265 260 242 261 274 271 287 320 347 2 78 125 117 64 31 35 38 27 17 42 32 23 13 17 354 356 2 1 5 7 347 340 348 7 26 31 37 42 104 134 120 107 105
279 241 220 242 224 216 261 324 308 302 11 133 128 98 72 45 44 30 12 5 19 21 14 15 4 8 10 11 7 354 10 20 353 2 14 25 34 38 32 30 44 53 67 76
269 3 344 102 192 245 296 311 308 332 101 127 110 103 87 60 43 49 18 3 14 27 24 6 6 12 17 19 14 5 344 27 30 32 38 37 37 36 38 45 47 40 25 359
58 49 10 316 244 257 276 286 335 40 72 123 101 89 78 69 57 49 37 33 26 16 9 3 6 25 23 23 30 26 22 29 39 41 43 44 52 47 41 41 42 38 25 13
71 58 67 70 22 20 107 62 68 76 76 90 91 81 68 56 55 70 65 53 22 357 342 14 23 28 26 23 46 43 47 40 46 47 41 47 47 52 47 41 46 50 42 30
77 61 52 56 88 71 73 83 83 73 75 62 66 67 66 61 53 61 75 62 17 5 14 23 28 26 35 22 44 49 43 56 52 53 53 45 43 42 53 44 45 49 47 45
91 77 67 60 64 67 68 76 77 85 69 76 105 62 51 56 64 71 57 34 21 359 40 34 36 29 33 43 54 62 52 49 55 52 56 57 51 48 45 54 45 40 40 37
115 94 88 86 74 63 54 63 65 58 66 52 61 44 59 45 31 40 49 20 28 21 57 48 29 28 27 50 54 61 61 63 56 56 58 56 57 56 49 49 54 43 46 43
159 127 122 112 100 88 80 50 58 62 38 34 62 52 57 83 75 50 76 81 53 52 62 39 37 19 49 55 53 56 58 61 71 71 59 53 48 49 56 62 54 48 47 52
195 173 171 160 137 128 140 123 94 72 95 94 53 8 26 27 40 60 66 71 52 59 61 46 29 30 61 61 63 62 59 59 67 74 72 64 63 63 55 48 64 69 69 62
134 132 155 185 183 167 153 154 160 157 146 151 60 26 56 21 13 30 83 64 62 53 58 54 39 54 57 53 60 61 65 71 68 70 85 86 78 63 66 75 73 66 45 63
113 122 126 120 128 174 177 170 177 174 182 133 84 56 33 18 31 8 91 98 76 68 55 49 50 41 35 39 60 61 67 70 46 72 79 78 76 82 90 89 77 66 66 74